Flag for South Korea Weather past 2 weeks in Gunsan, South Korea

Now
82 °F

Clear.


Feels Like: 90 °F
Forecast: 77 / 87 °F
Wind: 14 mph from Southwest

Location: Kunsan Ab

Current Time: Aug 4, 2015 at 9:31:22 PM

Latest Report: Aug 4, 2015 at 8:58 PM


Visibility: 10 mi

Pressure: 29.75 "Hg

Humidity: 81%

Dew point: 76 °F

Location of GunsanLocation

Historic Weather in Gunsan — Graph

°F

Gunsan temperature yesterday

Maximum temperature yesterday: 90 °F (at 12:58 PM)
Minimum temperature yesterday: 77 °F (at 4:58 AM)
Average temperature yesterday: 83 °F

Past Weeks' High & Low Weather Summary

 TemperatureHumidityPressure
High90 °F (Aug 4, 1:58 PM)100% (Jul 21, 2:01 AM)29.87 "Hg (Jul 21, 2:01 AM)
Low75 °F (Jul 21, 6:58 AM)56% (Aug 3, 11:58 AM)29.65 "Hg (Jul 24, 6:56 AM)
Average81 °F90%29.77 "Hg
* Reported Jul 20 7:58 PM — Aug 4 7:58 PM, Gunsan, Weather by CustomWeather, © 2015

Note: Actual official high and low records may vary slightly from our data, if they occured in-between our weather recording intervals... More about our weather records

Advertising

Gunsan weather history for previous 24 hours

 ConditionsComfort  
Time TempWeatherWind HumidityBarometerVisibility
7:58 PM
Tue, Aug 4
83 °FClear.13 mph81%29.73 "Hg10 mi
6:58 PM84 °FSunny.10 mph77%29.72 "Hg10 mi
5:58 PM86 °FSunny.16 mph72%29.71 "Hg10 mi
4:58 PM87 °FPassing clouds.15 mph67%29.72 "Hg10 mi
3:58 PM88 °FScattered clouds.16 mph65%29.72 "Hg10 mi
2:58 PM89 °FScattered clouds.15 mph64%29.73 "Hg10 mi
1:58 PM90 °FScattered clouds.15 mph56%29.74 "Hg10 mi
12:58 PM89 °FBroken clouds.16 mph61%29.75 "Hg10 mi
11:58 AM88 °FBroken clouds.15 mph63%29.77 "Hg10 mi
10:58 AM86 °FBroken clouds.15 mph69%29.78 "Hg10 mi
9:58 AM85 °FPartly sunny.14 mph70%29.79 "Hg10 mi
8:58 AM84 °FScattered clouds.16 mph73%29.78 "Hg10 mi
7:58 AM81 °FBroken clouds.12 mph83%29.79 "Hg10 mi
6:58 AM78 °FPartly sunny.10 mph88%29.79 "Hg10 mi
5:58 AM76 °FSunny.9 mph92%29.78 "Hg10 mi
4:58 AM76 °FClear.13 mph91%29.78 "Hg10 mi
3:58 AM77 °FClear.10 mph88%29.79 "Hg10 mi
1:58 AM77 °FClear.9 mph86%29.80 "Hg10 mi
1:04 AM77 °FClear.5 mph83%29.78 "Hg7 mi
12:58 AM78 °FClear.6 mph79%29.79 "Hg8 mi
11:58 PM
Mon, Aug 3
79 °FClear.5 mph77%29.78 "Hg10 mi
10:58 PM79 °FClear.5 mph78%29.78 "Hg10 mi
10:04 PM81 °FClear.3 mph84%29.77 "Hg5 mi
9:58 PM81 °FClear.6 mph83%29.78 "Hg1 mi
Weather by CustomWeather, © 2015

See weather overviewHow to use our weather pages